Zurück zum Katalog

PHASMA-LAMARR

AktivWetterSSO
NORAD 66759·PAYLOAD·🇺🇸 United States
Dieser Satellitenname wurde noch nicht durch offizielle Quellen bestätigt.

Gestartet Nov 28, 2025 von Vandenberg Space Force Base

Loading…

Nächste Überflüge (nächste 24 Stunden)

TLE

AktuellSource: Space-Track

Epoche: Sep 14, 2026, 11:04 UTC

1 66759U 25276CX  26257.46122813  .00004640  00000-0  20705-3 0  9995
2 66759  97.4093 329.8671 0001616  47.6556 312.4817 15.21867585 44013

Verfolge PHASMA-LAMARR in Echtzeit mit AllMySat

Download on the App Store